Home   Weather   Santa Clara   Past weeks

Flag for Cuba Past Weather in Santa Clara, Cuba — Yesterday and Last 2 Weeks

Now
86 °F

Passing clouds.


Feels Like: 97 °F
Forecast: 74 / 86 °F
Wind: 10 mph from Northeast

Location: Cienfuegos - Las Villas

Current Time: Oct 1, 2016 at 11:39:58 AM

Latest Report: Oct 1, 2016 at 10:50 AM


Visibility: N/A

Pressure: 29.98 "Hg

Humidity: 75%

Dew Point: 77 °F

Location of Santa ClaraLocation

Past Weather in Santa Clara — Graph

°F

Santa Clara Temperature Yesterday

Maximum temperature yesterday: 93 °F (at 1:58 PM)
Minimum temperature yesterday: 77 °F (at 4:58 AM)
Average temperature yesterday: 83 °F

High & Low Weather Summary for the Past Weeks

 TemperatureHumidityPressure
High93 °F (Sep 21, 2:50 PM)100% (Sep 17, 5:58 AM)30.07 "Hg (Sep 17, 5:58 AM)
Low72 °F (Sep 22, 7:58 PM)53% (Sep 21, 2:50 PM)29.89 "Hg (Sep 19, 4:58 PM)
Average81 °F83%29.98 "Hg
* Reported Sep 16 9:50 AM — Oct 1 9:50 AM, Santa Clara, Weather by CustomWeather, © 2016

Note: Actual official high and low records may vary slightly from our data, if they occured in-between our weather recording intervals... More about our weather records

Advertising

Santa Clara Weather History for the Previous 24 Hours

Scroll right to see more
 ConditionsComfort  
Time TempWeatherWind HumidityBarometerVisibility
9:50 AM
Sat, Oct 1
84 °FPassing clouds.8 mph79%29.95 "HgN/A
8:51 AM81 °FPassing clouds.7 mph84%29.95 "HgN/A
7:58 AM75 °FMild.7 mph94%29.95 "HgN/A
6:58 AM73 °FMild.6 mph94%29.95 "HgN/A
5:58 AM73 °FMild.8 mph100%29.95 "HgN/A
4:58 AM75 °FMild.5 mph94%29.95 "HgN/A
3:58 AM75 °FMild.6 mph94%29.95 "HgN/A
2:58 AM75 °FMild.6 mph100%29.95 "HgN/A
1:58 AM77 °FWarm.5 mph89%29.98 "HgN/A
12:58 AM77 °FWarm.6 mph94%29.98 "HgN/A
11:58 PM
Fri, Sep 30
77 °FWarm.8 mph94%29.98 "HgN/A
10:58 PM79 °FWarm.7 mph89%29.98 "HgN/A
9:58 PM79 °FWarm.8 mph94%29.98 "HgN/A
8:58 PM79 °FWarm.5 mph94%29.95 "HgN/A
7:58 PM82 °FWarm.5 mph84%29.95 "HgN/A
6:58 PM82 °FWarm.3 mph84%29.95 "HgN/A
5:58 PM88 °FWarm.3 mph59%29.92 "HgN/A
4:58 PM90 °FHot.10 mph59%29.89 "HgN/A
3:58 PM91 °FHot.8 mph59%29.92 "HgN/A
2:58 PM93 °FExtremely hot.8 mph56%29.92 "HgN/A
1:58 PM93 °FExtremely hot.9 mph56%29.98 "HgN/A
12:55 PM91 °FPartly sunny.10 mph59%30.01 "HgN/A
11:51 AM90 °FPartly sunny.12 mph63%30.01 "HgN/A
Weather by CustomWeather, © 2016

See weather overviewHow to use our weather pages